Wetbulb
47.74 47.39 47.40 47.20 46.59 44.90 38.38 32.68 23.96 37.57 39.13 28.59 21.92 23.65 26.92 31.50 30.42 32.61 30.17 30.16 27.77 25.84 26.27 24.82 24.99 24.99 28.43 34.18 34.01 28.30 30.71 26.51 22.18 25.26 31.80 33.14 32.92 29.34 29.22 27.67 29.03 29.15 28.79 32.94
47.40 47.34 47.41 47.34 46.46 42.99 35.82 30.31 29.11 36.47 36.30 22.04 21.75 24.09 25.91 28.71 28.96 29.77 29.68 28.47 29.70 29.94 26.37 22.38 25.48 27.19 33.12 34.15 32.24 29.92 30.82 23.23 19.10 22.93 29.79 32.12 28.50 29.46 29.74 28.70 28.66 25.03 24.80 30.68
47.27 47.02 47.01 46.94 46.71 43.43 34.52 27.76 22.41 27.71 29.88 27.79 26.55 25.07 23.47 23.93 30.93 29.91 30.89 29.97 30.43 29.02 26.61 28.19 24.33 26.47 31.07 33.71 32.89 35.59 34.86 26.33 22.75 18.74 22.58 26.99 24.24 26.81 28.82 27.23 22.12 23.38 24.01 26.34
46.70 46.96 46.85 46.73 47.03 43.40 34.97 27.54 23.20 27.00 22.20 24.91 27.51 28.29 26.89 24.97 25.61 30.24 31.03 28.50 28.71 27.15 20.95 23.83 24.52 27.70 29.47 32.11 33.52 33.56 31.25 23.87 26.17 26.81 27.83 27.72 26.74 26.44 27.44 25.76 26.46 22.17 26.65 27.26
46.35 46.23 46.53 46.66 47.11 42.84 33.76 27.04 26.29 29.71 28.50 29.19 27.73 26.09 23.44 25.06 27.28 28.30 26.89 26.97 28.93 28.70 24.90 25.94 23.69 27.13 27.69 27.30 31.35 30.30 30.94 23.44 25.78 23.23 27.32 27.29 24.56 27.12 27.65 27.99 27.68 27.32 28.11 27.90
45.89 45.73 45.94 46.50 46.80 41.16 32.50 32.93 32.66 31.11 26.27 27.06 25.99 25.34 26.27 26.57 28.59 29.53 31.04 29.85 28.49 27.05 28.83 31.83 32.20 32.40 32.42 31.58 29.33 27.99 27.16 25.16 22.23 17.85 24.66 24.43 19.84 25.42 27.18 27.87 29.75 29.15 25.22 30.95
45.34 45.56 45.54 45.67 46.62 41.30 36.12 34.17 33.66 30.00 24.19 26.04 26.54 27.84 28.45 27.69 28.77 27.08 30.34 31.50 29.07 31.83 35.33 34.70 33.90 32.11 31.19 31.13 30.61 31.47 26.51 25.32 24.60 18.93 21.23 12.28 25.42 31.19 30.94 28.61 29.87 31.90 31.83 33.22
44.15 44.29 44.95 44.92 45.23 44.69 40.14 37.54 37.97 32.74 25.94 27.31 27.12 27.79 27.96 29.29 30.24 28.93 29.61 31.92 34.16 35.79 32.27 27.18 21.55 20.89 19.48 20.69 26.83 29.43 30.33 26.85 21.73 17.88 17.38 21.98 25.05 28.76 28.32 26.73 27.39 33.14 31.96 33.73
43.19 43.72 43.70 43.97 44.18 44.79 41.14 40.95 41.99 37.02 30.30 27.03 30.80 28.54 29.37 26.65 26.44 26.49 28.41 33.39 35.70 33.58 29.20 24.90 17.22 15.97 18.06 20.07 24.36 28.58 28.45 29.49 23.64 18.77 15.40 11.95 24.95 30.96 34.13 32.80 22.64 33.97 34.62 33.61
41.82 42.11 42.18 42.83 43.09 43.25 43.04 40.63 40.79 37.01 30.66 32.74 31.70 27.80 27.10 29.74 27.47 25.42 27.00 29.09 30.32 32.91 25.37 20.01 18.20 17.80 24.69 18.90 19.72 20.87 22.71 23.07 19.93 20.78 18.28 22.01 30.12 32.84 34.18 21.09 24.79 34.84 35.46 35.48
41.25 41.02 40.91 41.75 42.25 42.65 41.69 40.01 41.06 37.69 32.11 33.02 33.76 33.33 30.27 29.48 29.26 25.16 28.43 27.53 25.76 25.75 21.65 20.70 20.56 19.22 23.97 22.95 25.25 24.04 22.65 21.27 20.10 21.61 18.86 15.56 33.68 31.92 26.39 32.84 36.21 35.79 36.11 36.87
40.91 40.60 40.56 40.63 40.85 41.00 41.57 37.24 42.17 42.17 34.98 33.42 37.61 37.42 37.26 35.72 34.52 31.34 31.51 29.11 26.70 29.14 25.76 25.50 25.85 23.16 24.99 23.37 17.81 28.16 20.25 25.69 24.36 25.21 25.22 32.81 34.25 33.42 36.43 37.19 35.74 36.42 36.79 37.84
41.81 41.26 41.04 41.23 41.30 40.86 39.87 37.34 38.50 37.01 32.26 30.51 31.13 30.59 36.34 38.94 38.10 38.41 28.93 31.54 32.66 31.09 33.28 28.19 26.26 21.13 24.96 19.14 21.45 24.16 27.78 31.39 27.01 27.07 30.10 32.00 34.10 36.05 36.98 37.61 37.02 37.85 38.48 38.14
42.00 41.93 42.09 42.13 41.82 41.80 41.32 36.34 37.80 36.08 32.44 24.42 25.68 34.32 32.50 36.96 37.59 37.42 36.81 34.99 34.33 34.25 33.10 28.75 26.88 23.24 29.24 24.29 26.04 25.53 28.24 29.94 27.49 27.79 31.02 32.63 33.57 35.32 36.76 37.68 38.41 38.32 39.21 39.05
40.47 41.25 41.73 42.06 42.38 42.56 41.51 40.19 38.80 37.68 31.19 22.51 24.89 31.97 34.44 35.10 34.66 34.31 35.93 34.56 32.92 30.96 28.44 28.13 25.79 29.18 27.69 28.70 28.09 25.32 29.50 27.96 25.95 25.23 32.24 32.45 32.74 36.40 38.04 37.11 37.22 38.33 38.18 38.09
39.41 39.57 39.62 39.64 40.09 40.61 39.02 31.73 34.09 39.84 36.16 29.30 22.45 29.67 29.23 32.99 33.00 31.36 32.21 33.48 32.47 31.12 29.65 28.34 30.03 32.30 29.74 24.55 23.35 30.23 33.36 34.96 34.49 30.99 35.10 35.09 35.79 37.54 38.76 37.43 37.82 38.32 38.84 38.81
38.86 39.01 39.29 39.48 39.29 38.51 34.60 29.07 33.43 39.94 38.12 29.58 22.91 24.44 30.77 32.14 33.42 31.56 30.33 32.45 32.02 30.49 29.47 28.19 29.13 29.79 31.21 28.17 23.68 30.34 33.55 35.33 36.11 37.21 36.33 34.01 36.39 35.13 37.61 37.71 38.94 39.88 39.83 39.44
38.74 39.04 39.19 39.24 39.50 38.71 34.15 37.44 40.19 39.09 34.55 31.02 23.57 23.85 25.49 33.23 28.56 28.46 34.71 30.24 30.60 31.45 30.57 31.73 29.27 31.22 29.98 25.03 30.07 33.10 34.32 35.37 35.90 36.69 36.90 35.89 35.94 35.84 35.94 36.52 36.45 35.78 36.59 38.06
38.30 38.40 39.24 38.00 36.05 33.12 31.79 38.65 40.12 40.31 34.97 26.03 23.44 21.55 19.27 31.64 31.05 31.01 32.11 33.45 28.49 33.04 28.95 29.92 32.37 29.57 26.51 30.24 31.73 33.00 33.85 34.07 34.43 36.03 35.81 34.75 32.96 32.28 34.24 35.09 35.16 33.84 33.11 34.49
38.18 36.87 31.98 25.03 32.20 38.03 37.92 36.70 30.69 30.51 31.34 30.27 23.94 25.89 22.33 29.87 28.11 27.95 28.33 30.24 27.93 24.98 29.01 32.14 28.56 27.31 32.82 33.96 34.26 34.64 35.58 36.16 35.49 31.80 31.00 31.45 30.88 31.70 32.63 33.54 34.93 35.12 34.67 34.96
34.50 29.77 27.15 33.32 38.51 35.88 32.52 28.29 26.89 27.17 24.35 27.45 26.52 25.90 23.14 29.56 24.92 26.83 29.90 26.41 27.49 23.63 26.49 26.63 26.14 25.48 30.83 34.74 35.88 36.78 35.53 34.88 33.45 33.02 32.85 32.91 32.68 32.53 32.19 32.67 33.69 34.29 34.65 34.87
33.25 33.30 34.01 32.32 29.64 27.43 26.29 26.18 28.44 24.35 22.56 27.16 25.23 26.48 26.46 28.41 30.86 28.33 28.07 26.16 27.47 21.47 29.35 26.14 22.62 29.79 32.79 34.39 34.56 34.31 34.44 33.42 32.44 32.84 32.67 33.05 32.73 33.32 32.55 32.52 32.46 32.71 32.76 32.40
34.13 29.88 26.31 24.50 22.70 19.51 20.41 17.22 24.39 25.47 28.77 28.49 28.65 27.55 29.73 30.00 30.65 29.22 29.34 25.24 23.90 29.31 25.39 23.78 27.53 31.69 32.94 33.64 33.56 32.99 34.15 32.93 32.52 32.85 33.51 33.02 32.34 32.88 32.38 31.54 31.96 32.09 32.27 32.46
26.72 22.87 13.83 18.44 15.01 19.56 22.06 24.66 26.25 28.80 28.76 30.07 30.37 29.12 29.10 30.63 28.63 29.41 25.53 27.03 27.19 22.23 20.11 21.32 28.52 31.23 32.29 33.67 33.81 33.31 31.90 32.23 32.09 32.82 32.50 31.61 31.62 31.54 32.27 31.84 31.90 31.94 31.94 32.12
24.47 23.68 14.31 18.12 23.54 25.69 27.36 28.21 29.05 30.01 30.50 30.25 29.56 29.45 30.33 29.14 27.80 28.32 26.64 22.75 21.03 22.59 22.91 27.42 31.01 32.18 33.09 33.14 32.92 31.66 31.71 32.07 32.12 32.80 31.76 31.51 31.94 31.66 31.93 31.90 31.91 31.94 32.12 32.12
26.05 23.98 20.71 24.38 24.04 23.13 23.30 26.68 27.59 29.70 29.56 29.77 29.86 27.68 25.84 25.92 27.05 24.90 22.49 21.27 19.89 24.56 28.76 31.34 31.46 32.53 32.93 32.37 32.58 32.61 32.86 33.01 32.60 32.78 32.24 32.31 32.08 31.52 31.56 32.29 32.09 31.94 31.94 31.69
22.98 21.21 23.53 24.03 23.59 21.63 23.98 25.36 25.77 30.46 26.50 24.37 27.19 22.95 24.24 28.30 25.01 23.89 27.20 24.22 27.64 28.95 30.56 30.26 31.07 31.81 32.66 32.45 32.47 32.81 33.42 33.27 32.01 32.09 31.59 31.46 32.70 32.49 32.70 31.31 31.73 31.94 31.93 31.91
MSLP
1020.08 1020.02 1020.03 1019.95 1019.91 1019.96 1020.14 1021.05 1021.29 1020.06 1019.57 1020.53 1022.02 1021.72 1021.21 1020.39 1019.45 1018.66 1018.39 1018.18 1017.80 1017.52 1017.24 1016.89 1016.42 1015.96 1015.47 1015.09 1014.82 1014.68 1014.84 1014.56 1013.41 1012.08 1011.84 1011.58 1011.74 1011.50 1010.92 1009.83 1008.81 1007.95 1007.08 1005.35
1020.00 1019.91 1019.90 1019.94 1019.90 1020.03 1020.71 1021.54 1021.66 1020.51 1020.30 1021.50 1022.27 1021.93 1021.34 1020.67 1019.77 1019.09 1018.51 1018.25 1018.30 1018.11 1017.75 1017.48 1016.94 1016.39 1015.67 1015.38 1015.26 1015.05 1015.14 1015.28 1014.22 1012.77 1012.72 1012.54 1012.65 1013.04 1012.89 1012.41 1011.48 1009.62 1008.77 1005.75
1019.88 1019.82 1019.75 1019.84 1019.93 1020.16 1020.92 1022.07 1022.43 1021.90 1021.70 1022.17 1022.09 1022.02 1021.60 1020.77 1019.81 1019.33 1018.89 1018.53 1018.30 1018.41 1018.28 1018.07 1017.41 1016.78 1016.08 1015.70 1015.38 1015.15 1015.18 1015.42 1014.96 1014.12 1013.33 1013.23 1013.01 1012.99 1012.98 1013.03 1012.43 1010.93 1009.69 1007.00
1019.88 1019.78 1019.72 1019.76 1019.90 1020.17 1021.01 1022.45 1023.04 1022.87 1022.57 1022.37 1022.02 1021.84 1021.50 1020.89 1019.98 1019.38 1018.97 1018.64 1018.54 1018.72 1018.61 1018.23 1017.74 1017.11 1016.54 1015.95 1015.50 1015.46 1015.57 1015.66 1015.27 1014.44 1013.67 1013.30 1012.93 1012.53 1012.35 1012.08 1011.61 1011.03 1008.84 1008.04
1019.89 1019.81 1019.72 1019.67 1019.81 1020.21 1021.18 1022.30 1022.67 1022.82 1022.48 1022.16 1021.89 1021.70 1021.37 1020.70 1020.04 1019.67 1019.10 1018.86 1018.68 1018.78 1018.73 1018.46 1017.90 1017.47 1017.18 1016.53 1015.99 1015.98 1016.29 1015.98 1015.69 1014.53 1013.69 1013.08 1012.47 1011.53 1010.70 1010.45 1010.34 1009.90 1008.76 1007.61
1019.77 1019.78 1019.72 1019.61 1019.74 1020.18 1021.27 1022.15 1022.26 1022.09 1022.08 1021.86 1021.68 1021.12 1020.57 1020.16 1019.94 1019.40 1019.15 1019.05 1018.95 1018.51 1018.09 1017.91 1017.61 1017.43 1017.09 1016.61 1016.34 1016.28 1016.47 1016.30 1015.98 1014.59 1013.86 1013.02 1011.67 1008.87 1009.00 1008.63 1008.27 1008.09 1007.47 1006.27
1019.60 1019.66 1019.71 1019.67 1019.60 1019.97 1020.87 1021.54 1021.74 1021.96 1021.73 1021.51 1021.00 1020.43 1020.23 1019.89 1019.68 1019.51 1018.93 1018.95 1018.83 1017.88 1017.84 1017.64 1017.00 1016.73 1016.28 1015.94 1015.21 1015.65 1015.72 1016.08 1016.04 1014.81 1014.14 1011.97 1008.94 1008.53 1008.13 1007.88 1007.26 1007.10 1006.72 1005.47
1019.44 1019.59 1019.59 1019.63 1019.63 1019.81 1020.34 1020.85 1021.11 1021.29 1020.99 1020.74 1020.38 1020.09 1019.86 1019.54 1019.31 1019.15 1018.67 1018.14 1017.96 1017.83 1018.06 1017.89 1017.50 1016.85 1016.22 1014.96 1014.37 1014.47 1014.91 1015.52 1015.25 1014.47 1013.00 1010.42 1009.02 1007.87 1007.47 1007.28 1006.06 1004.69 1004.61 1004.31
1019.10 1019.25 1019.39 1019.48 1019.55 1019.65 1020.13 1020.33 1020.43 1020.56 1020.46 1019.78 1019.37 1019.47 1019.39 1019.36 1019.19 1018.93 1018.31 1017.80 1017.60 1017.95 1018.12 1018.25 1018.08 1017.31 1016.15 1015.13 1014.09 1013.94 1014.21 1014.68 1014.77 1014.20 1012.78 1010.24 1007.75 1007.07 1006.87 1006.92 1004.87 1004.39 1003.84 1003.68
1018.71 1018.91 1019.09 1019.27 1019.42 1019.51 1019.74 1019.89 1020.08 1020.32 1019.85 1019.05 1019.25 1019.10 1019.13 1019.09 1019.08 1018.82 1018.44 1017.98 1017.73 1017.86 1018.18 1018.33 1017.99 1017.03 1015.89 1014.77 1013.89 1013.80 1013.95 1013.91 1013.57 1012.85 1011.53 1008.66 1007.42 1006.79 1006.69 1006.36 1004.65 1003.84 1003.74 1003.66
1018.36 1018.52 1018.73 1018.90 1019.07 1019.25 1019.56 1019.47 1019.63 1019.91 1019.24 1018.21 1018.20 1018.28 1018.30 1018.50 1018.54 1018.48 1018.28 1018.41 1017.98 1018.17 1018.23 1018.05 1017.30 1016.80 1015.34 1014.58 1013.46 1012.86 1012.58 1012.58 1012.20 1011.55 1010.05 1007.90 1006.13 1006.18 1005.97 1004.61 1004.11 1004.13 1003.58 1003.27
1017.91 1018.17 1018.35 1018.51 1018.70 1018.86 1019.10 1019.27 1019.11 1019.34 1019.33 1017.70 1017.50 1017.45 1017.24 1017.32 1017.22 1017.67 1017.80 1017.41 1017.31 1017.16 1017.37 1017.27 1016.82 1016.05 1015.20 1014.15 1013.17 1012.61 1011.96 1011.13 1010.24 1009.81 1007.68 1006.39 1005.99 1005.71 1005.28 1004.84 1004.09 1003.90 1003.49 1003.17
1017.23 1017.49 1017.77 1018.03 1018.22 1018.46 1018.67 1018.91 1019.03 1019.38 1019.34 1017.49 1016.65 1015.90 1015.56 1015.98 1016.14 1016.50 1016.97 1016.59 1016.59 1016.57 1016.82 1016.95 1016.53 1015.78 1014.71 1013.58 1012.18 1011.33 1010.79 1010.11 1009.26 1008.42 1006.63 1005.61 1005.34 1004.77 1004.58 1004.07 1003.39 1002.98 1002.73 1002.19
1016.58 1016.82 1017.03 1017.24 1017.48 1017.76 1018.04 1018.51 1018.65 1019.18 1019.37 1018.35 1015.93 1015.14 1014.95 1014.51 1014.73 1015.10 1015.18 1015.45 1016.10 1016.19 1016.57 1016.40 1015.59 1014.63 1013.53 1012.50 1011.69 1010.94 1010.16 1009.47 1007.83 1006.77 1005.88 1004.84 1004.55 1004.02 1003.55 1002.98 1002.72 1002.05 1001.47 1001.04
1016.21 1016.33 1016.43 1016.59 1016.73 1017.00 1017.31 1017.69 1017.91 1018.11 1018.86 1017.88 1016.13 1014.93 1013.11 1013.10 1013.70 1013.97 1014.42 1015.09 1015.63 1016.07 1015.98 1015.22 1014.11 1013.19 1013.10 1011.97 1011.31 1009.35 1008.37 1007.36 1007.46 1005.68 1004.65 1004.46 1003.23 1003.12 1002.97 1002.39 1001.52 1000.93 1000.39 999.95
1015.88 1016.00 1016.16 1016.35 1016.53 1016.74 1017.22 1017.50 1017.29 1017.16 1018.01 1017.99 1016.70 1014.54 1013.01 1012.70 1012.58 1013.09 1013.80 1014.45 1015.00 1015.30 1014.95 1014.17 1013.12 1012.31 1012.32 1010.98 1008.70 1005.49 1006.24 1005.97 1005.63 1004.73 1004.28 1003.97 1002.67 1002.61 1002.20 1001.70 1000.86 1000.29 999.82 999.10
1015.54 1015.73 1015.82 1015.89 1016.13 1016.53 1016.91 1016.96 1016.81 1016.70 1017.54 1017.82 1016.91 1015.01 1012.96 1012.61 1012.63 1013.12 1013.67 1013.99 1014.20 1014.39 1013.97 1012.93 1012.00 1011.29 1011.38 1009.46 1007.65 1003.47 1004.97 1005.09 1004.57 1004.05 1003.93 1003.62 1002.96 1002.48 1002.13 1001.46 1000.65 999.92 999.08 998.38
1015.15 1015.35 1015.46 1015.52 1015.72 1016.03 1016.22 1016.14 1016.64 1016.99 1017.41 1017.51 1016.61 1014.75 1013.61 1012.57 1012.55 1012.72 1012.71 1013.11 1013.50 1012.97 1012.20 1011.28 1010.58 1010.01 1009.66 1007.71 1004.25 1004.50 1004.33 1004.19 1004.01 1003.71 1003.78 1003.64 1003.27 1002.57 1001.73 1001.17 1000.36 999.66 998.95 998.24
1014.84 1015.00 1015.16 1015.44 1015.69 1015.74 1015.57 1015.16 1015.90 1016.51 1017.20 1016.40 1015.61 1014.56 1013.59 1012.59 1012.25 1012.19 1012.39 1012.19 1011.70 1011.16 1010.42 1009.86 1009.62 1008.09 1006.77 1004.39 1004.33 1004.10 1004.10 1004.12 1003.71 1003.39 1003.40 1003.05 1002.78 1002.27 1001.63 1000.95 1000.22 999.54 998.78 998.11
1014.53 1015.08 1015.36 1015.33 1014.93 1014.64 1014.91 1014.98 1015.82 1016.40 1016.08 1015.51 1014.10 1013.96 1013.29 1012.72 1012.34 1011.99 1012.04 1011.60 1010.86 1010.03 1009.01 1008.76 1008.15 1006.24 1004.54 1003.89 1003.66 1003.83 1003.98 1003.99 1004.01 1003.73 1003.01 1003.01 1002.63 1002.22 1001.48 1000.83 1000.19 999.53 998.66 997.96
1014.40 1014.65 1014.81 1014.62 1014.47 1014.61 1014.41 1014.13 1014.25 1014.31 1013.87 1013.06 1012.39 1012.27 1012.10 1012.12 1011.88 1011.42 1011.08 1010.64 1010.01 1009.09 1008.28 1008.05 1006.83 1005.33 1003.92 1003.53 1003.65 1003.88 1004.21 1004.35 1004.36 1004.21 1003.84 1003.48 1002.94 1002.15 1001.34 1000.61 1000.04 999.42 998.73 998.17
1013.80 1014.09 1014.44 1014.66 1014.60 1014.24 1013.59 1012.48 1012.07 1012.17 1011.16 1010.99 1011.02 1010.97 1011.28 1010.91 1010.84 1010.48 1010.34 1009.74 1009.15 1008.20 1007.98 1007.53 1006.02 1004.36 1003.58 1003.76 1003.90 1004.10 1004.32 1004.46 1004.36 1004.06 1003.59 1003.20 1002.69 1002.08 1001.40 1000.67 1000.03 999.46 999.00 998.72
1013.92 1014.11 1014.37 1014.32 1014.23 1013.64 1012.23 1010.98 1010.11 1009.84 1009.46 1009.84 1010.07 1010.16 1009.97 1010.16 1010.22 1009.82 1009.03 1008.40 1007.93 1007.66 1007.28 1006.08 1004.77 1003.69 1003.60 1003.77 1003.99 1004.29 1004.38 1004.41 1004.22 1003.91 1003.60 1003.11 1002.48 1001.84 1001.29 1000.59 999.98 999.64 999.37 999.14
1013.53 1013.75 1013.96 1013.45 1012.74 1011.74 1010.41 1009.79 1009.41 1009.27 1009.17 1009.23 1009.29 1009.28 1009.20 1008.97 1008.90 1008.28 1007.66 1007.53 1007.45 1006.91 1006.40 1005.26 1004.17 1003.55 1003.69 1003.78 1004.01 1004.18 1004.28 1004.29 1004.14 1003.97 1003.64 1003.12 1002.41 1001.85 1001.27 1000.70 1000.07 999.83 999.72 999.58
1012.85 1013.00 1012.46 1011.67 1010.95 1010.36 1010.04 1009.73 1009.47 1009.11 1008.86 1008.86 1008.74 1008.78 1008.57 1008.17 1007.93 1007.45 1007.25 1007.15 1006.46 1006.04 1005.14 1004.35 1003.68 1003.62 1003.75 1003.84 1003.98 1004.23 1004.27 1004.18 1004.08 1004.06 1003.78 1003.26 1002.61 1002.10 1001.48 1000.91 1000.46 1000.15 1000.03 1000.00
1012.32 1012.09 1011.52 1010.94 1010.82 1010.47 1010.22 1009.82 1009.46 1009.07 1008.91 1008.66 1008.54 1008.21 1007.68 1006.98 1006.55 1006.29 1006.06 1006.04 1005.48 1004.93 1004.51 1004.11 1004.07 1003.85 1003.77 1003.89 1003.96 1004.10 1004.16 1004.18 1004.04 1004.03 1003.87 1003.45 1002.93 1002.50 1002.03 1001.53 1001.15 1000.84 1000.62 1000.44
1011.42 1011.04 1010.82 1010.89 1010.78 1010.71 1010.07 1009.83 1009.45 1009.23 1009.13 1008.74 1008.20 1007.65 1006.40 1005.93 1005.15 1005.03 1005.09 1005.05 1004.88 1005.16 1004.91 1004.72 1004.46 1004.06 1003.84 1003.88 1003.87 1003.84 1003.93 1004.03 1004.02 1004.03 1003.93 1003.71 1003.30 1002.89 1002.43 1002.08 1001.89 1001.60 1001.37 1001.11
Wind_Speed
6 4 4 3 3 3 7 2 3 3 3 4 2 1 2 4 4 2 2 2 3 3 4 4 5 4 4 8 5 4 3 1 4 4 1 5 5 6 7 4 5 3 3 5
5 4 3 3 1 5 3 2 2 2 3 3 2 4 3 2 3 3 3 2 4 3 3 3 2 4 4 4 9 2 0 1 4 2 5 6 5 2 3 3 3 5 5 5
5 4 1 1 4 6 5 3 3 4 4 1 3 3 3 5 3 3 3 3 1 3 4 2 5 5 4 9 7 10 4 3 4 5 7 5 6 6 4 4 3 5 9 19
6 5 1 1 5 7 5 3 1 1 2 1 1 0 1 3 3 2 2 1 1 2 3 4 4 3 11 7 5 2 3 3 6 12 15 13 13 15 12 14 12 8 14 17
4 5 3 1 6 7 4 3 3 1 2 2 1 1 3 3 3 2 3 4 4 2 6 9 13 15 7 7 4 2 2 3 4 9 14 14 17 19 20 18 17 19 23 24
3 2 4 1 10 6 2 1 0 2 2 2 2 3 4 3 1 4 6 4 7 12 13 11 12 12 12 14 11 9 5 3 3 7 9 10 11 26 19 18 16 19 19 22
3 1 1 3 7 6 3 3 2 2 3 3 5 4 6 9 9 11 13 10 9 5 3 10 10 11 15 17 20 15 11 5 3 6 6 14 11 5 9 15 19 17 21 26
4 1 1 1 1 10 2 3 2 3 4 6 7 12 11 9 7 9 10 13 13 6 5 4 5 4 4 6 12 11 17 10 4 6 9 16 19 13 10 8 18 22 22 23
8 8 3 2 1 5 2 2 1 2 2 7 9 5 6 6 6 5 5 4 3 2 2 3 3 3 4 4 3 4 8 12 6 3 6 8 4 3 5 3 19 7 15 20
9 6 7 6 6 5 2 1 4 2 3 6 7 7 6 3 2 3 4 3 2 2 2 3 5 5 4 5 4 3 3 4 12 10 10 13 8 14 3 9 9 7 4 10
9 10 10 9 8 7 3 1 4 3 4 9 13 10 10 4 4 7 2 4 1 2 4 4 4 5 4 4 7 6 4 4 4 6 9 13 6 5 12 11 7 12 17 17
10 10 9 9 9 9 6 2 2 4 5 6 4 9 12 15 19 10 6 6 4 3 3 4 3 4 4 8 11 11 10 11 8 9 6 6 7 10 12 16 20 20 24 23
12 12 12 12 11 10 9 3 1 2 4 10 8 13 17 15 18 14 11 6 8 8 5 3 3 8 3 7 9 13 8 13 14 16 14 24 21 21 19 21 22 22 21 22
13 13 13 13 12 13 12 4 4 3 2 6 6 3 5 5 11 17 19 17 0 5 4 5 6 6 7 8 12 12 10 10 17 19 22 24 23 22 22 20 20 22 22 22
5 6 6 8 10 13 8 4 4 6 5 4 7 13 16 11 12 13 15 15 13 6 4 5 7 5 7 8 10 16 13 24 13 17 22 19 22 18 20 23 24 23 23 22
7 8 8 6 4 2 3 3 2 9 7 4 4 5 6 3 4 13 14 10 8 6 4 5 7 12 6 6 10 25 15 16 21 23 22 22 25 21 22 20 21 21 20 21
7 7 7 8 10 3 3 4 2 6 5 2 5 6 4 1 3 2 3 8 4 5 4 7 10 10 6 5 15 34 17 17 18 16 13 15 18 15 20 21 21 20 20 18
7 7 7 8 8 7 6 6 5 7 2 3 4 6 5 1 2 2 3 5 5 6 4 3 5 5 7 10 20 13 9 8 11 11 6 12 14 19 18 18 16 18 17 18
6 5 4 1 2 3 3 11 19 2 2 3 3 3 4 1 2 2 2 3 5 3 5 5 4 4 9 10 10 10 6 6 14 15 13 16 16 18 18 16 16 16 17 17
6 3 2 2 4 8 4 3 6 6 5 5 5 4 5 1 0 1 1 2 3 3 4 3 4 8 15 14 12 8 7 8 9 13 16 16 15 15 17 17 15 14 14 15
3 3 3 2 2 1 4 4 5 6 5 6 4 11 8 3 5 4 4 2 4 4 2 3 3 5 5 4 4 3 3 4 8 10 13 13 14 15 15 14 13 12 12 8
3 3 2 1 2 4 5 5 6 7 7 6 5 5 7 3 3 4 4 4 3 5 4 3 4 5 4 3 3 1 4 5 8 10 11 12 13 12 12 12 12 10 7 5
2 1 2 2 2 5 6 6 4 4 3 4 4 3 3 3 4 5 5 6 5 1 3 4 5 4 4 2 0 3 3 3 6 10 10 11 12 12 10 11 8 6 3 5
4 5 4 7 5 7 6 3 1 0 2 3 3 2 5 4 5 3 4 2 1 3 4 6 3 4 3 1 1 1 4 4 6 9 10 11 10 11 10 8 7 3 3 4
4 4 6 7 5 3 2 2 2 2 1 1 1 2 3 4 4 3 2 3 4 4 4 3 3 3 2 3 1 3 4 3 4 7 7 8 10 10 9 9 7 4 4 4
3 5 5 3 2 2 1 0 2 1 1 1 1 3 4 7 5 7 7 4 5 3 3 2 4 4 3 3 2 3 3 4 3 5 6 6 7 9 8 8 8 7 6 6
5 4 3 3 3 4 4 3 2 1 1 2 2 4 4 2 4 5 6 5 0 2 4 3 4 6 6 4 3 1 2 3 3 4 5 6 5 5 6 8 8 7 7 6
Wind_Direction
351 349 337 322 340 45 53 79 19 316 0 50 29 91 281 315 297 326 345 307 331 339 323 326 350 343 9 354 15 2 18 45 310 301 289 286 89 9 7 274 228 360 319 233
341 332 323 305 54 74 117 71 291 337 61 91 7 316 312 280 302 315 332 336 4 340 316 343 312 332 318 3 352 336 254 41 319 119 135 110 74 42 52 328 315 241 256 242
352 346 341 249 146 117 85 81 14 331 44 88 115 33 316 310 265 268 276 279 100 346 351 338 300 306 303 336 307 288 223 196 238 275 306 319 291 276 231 164 236 309 267 289
10 5 13 156 169 128 92 39 210 179 326 354 124 170 268 299 305 273 288 290 176 23 323 307 281 285 316 297 310 25 110 236 232 259 272 279 281 282 263 234 233 233 269 273
347 14 3 209 163 122 82 136 140 175 278 262 141 282 243 233 290 246 275 244 291 308 280 265 282 285 290 280 318 53 29 281 335 271 274 273 280 276 260 246 240 243 250 259
268 344 22 13 164 102 103 145 352 110 266 174 160 221 216 231 35 277 250 294 328 299 287 276 266 260 259 253 261 269 262 230 246 267 305 294 273 244 251 249 245 234 247 252
357 255 359 32 179 140 129 180 123 139 256 211 215 235 225 261 266 266 277 283 275 260 338 299 270 257 256 253 251 231 233 207 214 274 283 250 258 318 261 254 264 257 252 254
268 269 343 12 33 175 139 163 170 185 246 224 254 250 259 270 276 271 264 267 257 303 314 304 329 316 337 266 240 232 217 224 231 243 232 286 291 264 239 220 270 248 246 258
253 244 239 271 254 127 128 199 193 205 267 222 256 271 241 261 267 288 255 275 257 179 219 264 258 265 267 299 308 49 187 212 216 173 255 265 290 162 190 196 270 312 262 257
242 262 254 249 264 270 216 237 178 194 257 244 235 246 247 204 209 252 289 306 310 136 204 231 222 242 268 254 246 216 162 201 227 232 243 259 252 249 256 229 260 284 287 301
245 245 240 244 247 247 227 222 178 213 253 254 239 216 224 208 211 250 265 320 209 128 190 221 230 224 237 267 255 281 260 224 203 229 239 270 237 225 220 250 280 298 308 307
232 244 242 238 241 242 225 238 200 191 245 265 297 263 251 243 240 245 222 226 186 204 208 221 257 266 279 282 272 254 267 233 259 222 231 263 255 267 276 287 283 284 284 285
231 230 229 229 229 234 223 204 210 66 299 289 254 248 249 231 232 224 240 217 221 237 232 253 251 243 225 253 254 258 254 250 255 274 247 261 270 278 275 276 277 280 277 277
238 241 239 233 232 227 219 198 187 145 277 274 283 308 245 229 221 217 220 237 200 245 198 231 235 242 225 251 257 267 254 283 264 271 274 276 272 268 273 276 277 277 274 273
242 250 245 243 247 237 226 203 207 196 198 261 287 291 272 235 213 213 209 219 224 221 225 227 237 242 242 246 265 258 239 252 256 264 271 278 279 289 288 287 283 281 285 283
246 253 253 257 254 301 92 290 256 211 180 266 286 279 271 300 222 209 211 206 210 218 218 233 240 242 242 257 258 260 260 249 242 257 266 272 279 288 292 290 291 291 288 282
235 242 242 245 240 194 204 200 223 169 130 253 292 273 267 300 112 101 133 184 195 212 225 231 252 248 231 247 262 269 285 272 268 270 276 276 280 293 302 296 297 297 292 285
221 238 251 246 237 238 241 232 149 127 145 205 252 268 316 174 152 184 169 159 191 207 226 225 232 236 205 243 248 267 282 285 279 274 287 288 291 296 302 305 308 306 300 300
217 237 305 52 169 203 226 212 177 187 268 255 228 231 262 270 209 184 191 215 226 203 222 216 221 210 234 248 260 268 265 269 294 301 294 308 307 306 301 307 304 303 303 301
212 131 138 231 210 209 220 122 152 180 206 234 238 185 252 207 260 259 247 242 255 249 221 153 237 252 261 263 266 285 297 304 332 315 316 321 309 308 307 306 301 297 298 302
169 178 210 236 75 189 197 209 182 172 231 213 219 208 223 225 212 218 206 230 233 251 192 220 248 265 254 279 244 285 350 348 321 310 304 301 298 304 306 306 303 306 309 315
175 146 96 56 198 217 235 201 182 190 226 175 189 203 191 225 190 199 180 231 202 248 146 234 254 253 264 256 272 9 351 332 322 311 305 314 313 306 302 299 302 311 315 334
69 127 175 175 249 230 223 210 196 206 191 165 182 204 191 170 204 206 223 211 224 130 225 239 242 268 293 287 7 334 337 316 302 320 332 328 324 322 308 308 311 319 351 359
177 164 219 210 205 226 219 239 56 347 166 192 197 224 199 187 191 227 242 178 201 240 229 234 247 256 317 189 315 345 323 306 316 330 333 334 335 328 323 323 324 332 38 29
188 182 226 221 227 250 248 264 276 266 230 198 197 248 216 198 241 215 193 224 222 230 237 236 241 282 313 292 293 320 305 297 324 335 333 331 342 337 345 357 1 24 58 57
209 226 244 246 275 269 321 219 257 288 279 233 146 249 237 223 214 192 200 205 221 240 241 322 327 307 258 258 233 242 292 288 309 334 331 327 350 346 348 5 18 24 32 56
214 232 242 243 261 238 255 202 244 329 33 266 238 252 255 276 221 186 176 206 126 336 324 322 304 293 297 272 248 266 263 275 317 326 326 327 338 338 5 29 20 32 28 38